Weather History for Panama City Tyndall AFB, FL

Change the Weather History Date:

Thursday, September 20, 2012

  Actual Average Record
Temperature  
Mean Temperature 75 °F -  
Max Temperature 84 °F 84 °F 93 °F (2005)
Min Temperature 66 °F 69 °F 66 °F (2004)
Cooling Degree Days 10    
Growing Degree Days 25 (Base 50)    
Moisture  
Dew Point 69 °F    
Average Humidity 85    
Maximum Humidity 100    
Minimum Humidity 67    
Precipitation  
Precipitation 0.00 in - - ()
Sea Level Pressure  
Sea Level Pressure 30.04 in    
Wind  
Wind Speed 4 mph (NNE)    
Max Wind Speed 12 mph    
Max Gust Speed -    
Visibility 9 miles    
Events Rain    
Averages and records for this station are not official NWS values.
T = Trace of Precipitation, MM = Missing Value Source: NWS Daily Summary

Daily Weather History Graph

Daily Weather History Graph

Search for Another Location

Airport:

Trip Planner

Search our weather history database for the weather conditions in past years. The results will help you decide how hot, cold, wet, or windy it might be!

Date:

Astronomy

Sep. 20, 2012 Rise Set
Actual Time 6:29 AM CDT 6:40 PM CDT
Civil Twilight 6:05 AM CDT 7:04 PM CDT
Nautical Twilight 5:37 AM CDT 7:32 PM CDT
Astronomical Twilight 5:09 AM CDT 8:00 PM CDT
Moon 11:22 AM CDT (9/20) 10:07 PM CDT (9/20)
Length of Visible Light 12h 58m
Length of Day
12h 10m
Waxing Crescent, 27% of the Moon is Illuminated
Sep 20
Waxing Crescent
Sep 22
First Quarter
Sep 29
Full
Oct 8
Last Quarter
Oct 15
New

Hourly Weather History & Observations

Time (CDT) Temp. Heat Index Dew Point Humidity Pressure Visibility Wind Dir Wind Speed Gust Speed Precip Events Conditions
12:55 AM 69.8 °F - 69.4 °F 99% 30.04 in 10.0 mi Calm Calm - N/A   Clear
1:55 AM 68.4 °F - 68.4 °F 100% 30.04 in 10.0 mi Calm Calm - N/A   Clear
2:55 AM 68.2 °F - 68.2 °F 100% 30.03 in 10.0 mi Calm Calm - N/A   Clear
3:55 AM 67.6 °F - 67.5 °F 99% 30.02 in 10.0 mi NNE 4.6 mph - N/A   Clear
4:55 AM 66.9 °F - 65.3 °F 95% 30.04 in 1.8 mi NNE 4.6 mph - N/A   Clear
4:56 AM 66.2 °F - 64.4 °F 94% 30.04 in 1.5 mi NE 4.6 mph - N/A Rain Light Rain
5:00 AM 66.2 °F - 64.4 °F 94% 30.02 in 10.0 mi NNE 4.6 mph - N/A   Clear
5:55 AM 66.9 °F - 63.5 °F 89% 30.05 in 10.0 mi Variable 5.8 mph - N/A   Clear
6:55 AM 66.6 °F - 62.6 °F 87% 30.06 in 10.0 mi NNE 6.9 mph - N/A   Partly Cloudy
7:55 AM 68.2 °F - 63.0 °F 83% 30.07 in 10.0 mi NE 5.8 mph - N/A   Clear
8:55 AM 71.2 °F - 64.0 °F 78% 30.08 in 10.0 mi NE 6.9 mph - N/A   Clear
9:55 AM 76.8 °F - 67.1 °F 72% 30.08 in 10.0 mi NE 9.2 mph - N/A   Clear
10:55 AM 80.2 °F 83.5 °F 70.0 °F 71% 30.08 in 10.0 mi East 5.8 mph - N/A   Clear
11:55 AM 82.6 °F 87.3 °F 71.6 °F 69% 30.06 in 10.0 mi Variable 4.6 mph - N/A   Clear
12:55 PM 83.7 °F 88.9 °F 71.8 °F 67% 30.04 in 10.0 mi West 5.8 mph - N/A   Clear
1:55 PM 84.2 °F 89.9 °F 72.0 °F 67% 30.01 in 10.0 mi WSW 8.1 mph - N/A   Clear
2:55 PM 84.4 °F 90.3 °F 72.5 °F 67% 30.00 in 10.0 mi WSW 11.5 mph - N/A   Clear
3:55 PM 83.7 °F 89.4 °F 72.7 °F 69% 29.99 in 10.0 mi WSW 9.2 mph - N/A   Clear
4:55 PM 82.4 °F 87.4 °F 72.3 °F 71% 29.99 in 10.0 mi West 8.1 mph - N/A   Partly Cloudy
5:55 PM 81.0 °F 85.4 °F 72.5 °F 75% 29.99 in 10.0 mi West 6.9 mph - N/A   Clear
6:55 PM 77.4 °F - 72.5 °F 85% 30.00 in 10.0 mi NNW 3.5 mph - N/A   Clear
7:55 PM 76.6 °F - 72.5 °F 87% 30.02 in 10.0 mi Calm Calm - N/A   Clear
8:55 PM 74.3 °F - 72.5 °F 94% 30.04 in 10.0 mi North 3.5 mph - N/A   Clear
9:55 PM 73.6 °F - 72.1 °F 95% 30.04 in 10.0 mi ENE 4.6 mph - N/A   Clear
10:55 PM 73.8 °F - 73.8 °F 100% 30.04 in 10.0 mi East 5.8 mph - N/A   Clear
11:55 PM 72.7 °F - 72.7 °F 100% 30.04 in 10.0 mi East 5.8 mph - N/A   Clear